Flag for Germany Past Weather in Biberach an der Riss, Baden-Württemberg, Germany — Yesterday and Last 2 Weeks

Now
77 °F

Warm.


Feels Like: 79 °F
Forecast: 56 / 83 °F
Wind: 9 mph from East

Location: Laupheim Airport

Current Time: Aug 24, 2016 at 8:12:54 PM

Latest Report: Aug 24, 2016 at 7:20 PM


Visibility: N/A

Pressure: 30.21 "Hg (28.41 "Hg at 536m altitude)

Humidity: 51%

Dew Point: 57 °F

Location of Biberach an der RissLocation

Past Weather in Biberach an der Riss — Graph

°F

Biberach an der Riss Temperature Yesterday

Maximum temperature yesterday: 77 °F (at 5:20 PM)
Minimum temperature yesterday: 50 °F (at 6:20 AM)
Average temperature yesterday: 64 °F

High & Low Weather Summary for the Past Weeks

 TemperatureHumidityPressure
High81 °F (Aug 14, 3:20 PM)100% (Aug 13, 5:20 AM)30.42 "Hg (Aug 13, 5:20 AM)
Low48 °F (Aug 11, 6:20 AM)42% (Aug 11, 3:20 PM)29.86 "Hg (Aug 18, 4:20 AM)
Average63 °F74%30.15 "Hg
* Reported Aug 9 6:20 PM — Aug 24 6:20 PM, Biberach an der Riss, Weather by CustomWeather, © 2016

Note: Actual official high and low records may vary slightly from our data, if they occured in-between our weather recording intervals... More about our weather records

Advertising

Biberach an der Riss Weather History for the Previous 24 Hours

Scroll right to see more
 ConditionsComfort  
Time TempWeatherWind HumidityBarometerVisibility
6:20 PM
Wed, Aug 24
79 °FWarm.13 mph48%30.21 "HgN/A
5:20 PM79 °FWarm.13 mph48%30.21 "HgN/A
4:20 PM79 °FWarm.14 mph51%30.21 "HgN/A
3:20 PM79 °FWarm.14 mph51%30.24 "HgN/A
2:20 PM79 °FWarm.13 mph51%30.24 "HgN/A
1:20 PM77 °FWarm.14 mph54%30.24 "HgN/A
12:20 PM75 °FMild.14 mph54%30.24 "HgN/A
11:20 AM73 °FMild.12 mph57%30.27 "HgN/A
10:20 AM68 °FMild.9 mph73%30.27 "HgN/A
9:59 AM66 °FMild.7 mph78%30.27 "HgN/A
9:20 AM64 °FMild.7 mph78%30.27 "HgN/A
8:20 AM61 °FCool.6 mph88%30.27 "HgN/A
7:20 AM57 °FFog.8 mph94%30.27 "HgN/A
5:20 AM55 °FFog.5 mph94%30.27 "HgN/A
4:20 AM57 °FCool.3 mph88%30.27 "HgN/A
3:20 AM57 °FCool.5 mph94%30.27 "HgN/A
2:20 AM59 °FCool.6 mph88%30.30 "HgN/A
1:20 AM63 °FMild.3 mph77%30.30 "HgN/A
12:20 AM64 °FPassing clouds.7 mph78%30.30 "HgN/A
11:20 PM
Tue, Aug 23
64 °FPassing clouds.6 mph78%30.33 "HgN/A
10:20 PM64 °FPassing clouds.5 mph78%30.33 "HgN/A
9:20 PM66 °FPassing clouds.5 mph73%30.33 "HgN/A
8:20 PM72 °FPassing clouds.5 mph61%30.33 "HgN/A
Weather by CustomWeather, © 2016

See weather overviewHow to use our weather pages